This is the latest recevied weather packets stored in our database for station/object KC1HBM. If no packets are shown the sender has not sent any weather packets the latest 10 day(s).
| Time | Temp. | Humidity | Pressure | Rain* | Wind** | Luminosity | Snow |
|---|---|---|---|---|---|---|---|
| 1777908353 | 19.44° C | 47% | 1004.1 hPa | 0 mm | - | 674 W/m² | - |
| 1777908049 | 18.33° C | 46% | 1004.2 hPa | 0 mm | - | 694 W/m² | - |
| 1777907744 | 18.33° C | 44% | 1004.2 hPa | 0 mm | - | 662 W/m² | - |
| 1777907439 | 19.44° C | 43% | 1004.4 hPa | 0 mm | - | 665 W/m² | - |
| 1777907137 | 18.89° C | 45% | 1004.4 hPa | 0 mm | - | 692 W/m² | - |
| 1777906835 | 18.89° C | 47% | 1004.4 hPa | 0 mm | - | 629 W/m² | - |
| 1777906532 | 18.89° C | 45% | 1004.3 hPa | 0 mm | - | 553 W/m² | - |
| 1777906227 | 19.44° C | 44% | 1004.6 hPa | 0 mm | - | 614 W/m² | - |
| 1777905924 | 18.89° C | 46% | 1004.7 hPa | 0 mm | - | 636 W/m² | - |
| 1777905621 | 18.89° C | 45% | 1004.6 hPa | 0 mm | - | 622 W/m² | - |
| 1777905318 | 18.33° C | 47% | 1005 hPa | 0 mm | - | 614 W/m² | - |
| 1777905016 | 17.78° C | 45% | 1004.7 hPa | 0 mm | - | 528 W/m² | - |
| 1777904712 | 17.22° C | 50% | 1004.9 hPa | 0 mm | - | 294 W/m² | - |
| 1777904409 | 17.22° C | 48% | 1004.9 hPa | 0 mm | - | 452 W/m² | - |
| 1777904106 | 16.67° C | 48% | 1005.2 hPa | 0 mm | - | 497 W/m² | - |
| 1777903803 | 16.67° C | 47% | 1005.3 hPa | 0 mm | - | 471 W/m² | - |
| 1777903499 | 16.11° C | 51% | 1005.4 hPa | 0 mm | - | 291 W/m² | - |
| 1777903196 | 15.56° C | 50% | 1005.3 hPa | 0 mm | - | 310 W/m² | - |
| 1777902892 | 16.11° C | 50% | 1005.6 hPa | 0 mm | - | 381 W/m² | - |
| 1777902589 | 16.11° C | 48% | 1005.7 hPa | 0 mm | - | 393 W/m² | - |
| 1777902286 | 16.67° C | 53% | 1005.4 hPa | 0 mm | - | 490 W/m² | - |
| 1777901984 | 15.56° C | 54% | 1005.7 hPa | 0 mm | - | 476 W/m² | - |
| 1777901682 | 14.44° C | 57% | 1005.8 hPa | 0 mm | - | 482 W/m² | - |
| 1777901379 | 13.33° C | 60% | 1005.8 hPa | 0 mm | - | 132 W/m² | - |
| 1777901076 | 13.33° C | 59% | 1006 hPa | 0 mm | - | 124 W/m² | - |
* Rain latest hour (hover to see other rain measurements)
** Current wind speed in m/s (hover to see current wind gust speed)